Weather in Ryanza

Russia / Penza Oblast     53°28′50″N   42°27′38″E
temp.,
°C
wind,
m/s
gust,
m/s
humid.,
%
clouds,
%
prec.,
mm/h
press.,
hPa
HPBL,
m
21 january, fri
fri2100:00−13s61690100 0.0 1015330
03:00−13s61689100 0.0 1014336
06:00−13s71692100 0.0 1012354
09:00−11s71790100 0.0 1012489
12:00−9sse91989100 0.1 1010623
15:00−7sse91993100 1.3 1007809
18:00−7sse81693100 0.9 1006670
21:00−6sse71595100 1.9 1005614
22 january, sat
sat2200:00−4s5119389 0.6 1007399
03:00−8s5129579 0.6 1008242
06:00−9sse5129579 0.0 1009258
09:00−11sse5119668 0.0 1011208
12:00−8sse4119567 0.0 1012307
15:00−8sse389418 0.0 1013229
18:00−11s389788 0.0 1015121
21:00−15s239978 0.0 101740
23 january, sun
sun2300:00−14s249983 0.0 101958
03:00−16sse2410094 0.1 102148
06:00−17sse34100100 0.0 102351
09:00−17sse23100100 0.1 102540
12:00−9se1294100 0.0 102679
15:00−8ne2395100 0.0 102887
18:00−9ne3695100 0.0 1029100
21:00−8ne3895100 0.0 1030149
24 january, mon
mon2400:00−7nne4996100 0.2 1031203
03:00−5ene499699 0.6 1031255
06:00−5ene41095100 0.3 1031315
09:00−8e41091100 0.3 1033251
12:00−7ene398660 0.0 1033317
15:00−7ene4889100 0.0 1032238
18:00−10ene3893100 0.0 1033108
21:00−14ese259633 0.0 103465
25 january, tue
tue2500:00−15se379477 0.0 103490
03:00−17se239740 0.0 103335
06:00−18se2497100 0.0 103251
09:00−17se369699 0.0 103173
12:00−11sse3890100 0.0 1029195
15:00−10se3992100 0.0 1028219
18:00−13sse41195100 0.0 1027165
21:00−14sse4109748 0.0 1026163